Regional Weather Roundup
Issued by NWS

Home | Current Version | Previous Version | Text Only | Print | Product List | Glossary On
Versions: 1 2 3 4 5 6 7 8 9 10 11 12 13 14 15 16 17 18 19 20 21 22 23 24 25 26 27 28 29 30 31 32 33 34 35 36 37 38 39 40 41 42 43 44 45 46 47 48 49 50
000
ASPQ40 PGUM 221412
RWRPQ
WEATHER ROUNDUP FOR THE MARIANAS AND MICRONESIA
NATIONAL WEATHER SERVICE TIYAN GU
1200 AM CHST TUE JAN 23 2018

GUZ001>004-221500-
MARIANA ISLANDS-

CITY           SKY/WX    TMP DP  RH WIND       PRES   REMARKS
GUAM AIRPORT   PTCLDY    82  75  78 E13       29.83F
ANDERSEN AFB   LGT RAIN  79  75  89 E16G26    29.83F
ROTA AIRPORT   NOT AVBL
TINIAN AP      NOT AVBL
SAIPAN AP      MOCLDY    81  72  74 E16       29.84F

$$

PMZ161-221500-
REPUBLIC OF PALAU-

CITY           SKY/WX    TMP DP  RH WIND       PRES   REMARKS
KOROR AP       CLOUDY    77  73  88 CALM      29.72F
KOROR WSO      CLOUDY    79  77  94 NE5       29.73F

$$

PMZ171>174-221500-
FEDERATED STATES OF MICRONESIA-

CITY           SKY/WX    TMP DP  RH WIND       PRES   REMARKS
YAP AIRPORT    MOCLDY    81  77  89 VRB7      29.72F
CHUUK AP       CLOUDY    81  75  83 NE8       29.73F
POHNPEI AP     NOT AVBL
POHNPEI WSO    CLOUDY    82  75  78 E12       29.76F
KOSRAE AP      NOT AVBL

$$

PMZ181-221500-
REPUBLIC OF THE MARSHALL ISLANDS-

CITY           SKY/WX    TMP DP  RH WIND       PRES   REMARKS
KWAJALEIN AP   MOCLDY    81  77  89 NE18      29.73F
MAJURO AP      NOT AVBL
MAJURO WSO     MOCLDY    81  77  89 E13       29.70F

$$




USA.gov is the U.S. government's official web portal to all federal, state and local government web resources and services.